| time (UTC) | temp F | wind direction | speed MPH | gust MPH | rain 1hr in | rain 24hr in | rain mn in | humidity % | barometer mb |
| 20260905051537 | 67 | 268 | 0.0 | 0.0 | 0.00 | 0.31 | 0.00 | 93 | 1015.9 |
| 20260905050037 | 67 | 267 | 0.0 | 0.0 | 0.00 | 0.31 | 0.00 | 92 | 1015.6 |
| 20260905044510 | 67 | 268 | 0.0 | 0.0 | 0.00 | 0.31 | 0.00 | 92 | 1015.8 |
| 20260905043024 | 67 | 267 | 0.0 | 0.0 | 0.00 | 0.31 | 0.00 | 92 | 1015.9 |
| 20260905041527 | 67 | 268 | 0.0 | 0.0 | 0.00 | 0.31 | 0.00 | 92 | 1015.7 |
| 20260905040031 | 67 | 268 | 0.0 | 0.0 | 0.00 | 0.31 | 0.00 | 92 | 1015.6 |
| 20260905034531 | 67 | 268 | 0.0 | 0.0 | 0.00 | 0.31 | 0.31 | 92 | 1015.8 |
| 20260905033015 | 67 | 268 | 0.0 | 0.0 | 0.00 | 0.31 | 0.31 | 92 | 1015.7 |
| 20260905031524 | 67 | 268 | 0.0 | 0.0 | 0.00 | 0.31 | 0.31 | 90 | 1015.6 |
| 20260905030036 | 67 | 268 | 0.0 | 1.0 | 0.00 | 0.31 | 0.31 | 91 | 1015.6 |
| 20260905024507 | 68 | 268 | 0.0 | 0.0 | 0.00 | 0.31 | 0.31 | 90 | 1015.7 |
| 20260905023013 | 68 | 268 | 0.0 | 0.0 | 0.00 | 0.31 | 0.31 | 90 | 1015.8 |
| 20260905021523 | 68 | 268 | 0.0 | 0.0 | 0.00 | 0.31 | 0.31 | 90 | 1015.9 |
| 20260905020023 | 68 | 268 | 0.0 | 0.0 | 0.00 | 0.31 | 0.31 | 90 | 1015.9 |
| 20260905014536 | 69 | 268 | 0.0 | 0.0 | 0.00 | 0.31 | 0.31 | 88 | 1015.8 |
| 20260905013012 | 69 | 268 | 0.0 | 1.0 | 0.00 | 0.31 | 0.31 | 89 | 1015.9 |
| 20260905011514 | 69 | 268 | 0.0 | 0.0 | 0.00 | 0.31 | 0.31 | 89 | 1015.9 |
| 20260905010022 | 70 | 268 | 0.0 | 0.0 | 0.00 | 0.31 | 0.31 | 88 | 1015.9 |
| 20260905004537 | 71 | 268 | 0.0 | 0.0 | 0.00 | 0.31 | 0.31 | 87 | 1015.7 |
| 20260905003032 | 71 | 268 | 0.0 | 1.0 | 0.00 | 0.31 | 0.31 | 86 | 1015.8 |
| 20260905001531 | 72 | 268 | 0.0 | 0.0 | 0.00 | 0.31 | 0.31 | 85 | 1015.8 |
| 20260905000016 | 73 | 268 | 0.0 | 1.0 | 0.00 | 0.32 | 0.31 | 84 | 1015.8 |
| 20260904234532 | 74 | 271 | 0.0 | 1.0 | 0.00 | 0.34 | 0.31 | 83 | 1015.9 |
| 20260904233040 | 74 | 246 | 0.0 | 1.0 | 0.00 | 0.37 | 0.31 | 82 | 1016.0 |
| 20260904231538 | 75 | 304 | 1.0 | 3.0 | 0.00 | 0.40 | 0.31 | 82 | 1016.2 |
| 20260904230034 | 75 | 258 | 0.0 | 3.0 | 0.00 | 0.44 | 0.31 | 82 | 1016.1 |
| 20260904224516 | 75 | 282 | 0.0 | 1.0 | 0.00 | 0.60 | 0.31 | 81 | 1016.0 |
| 20260904223024 | 76 | 303 | 0.0 | 1.0 | 0.00 | 0.87 | 0.31 | 81 | 1015.7 |
| 20260904221532 | 76 | 287 | 1.0 | 2.0 | 0.00 | 1.41 | 0.31 | 80 | 1015.6 |
| 20260904220032 | 76 | 271 | 0.0 | 1.0 | 0.00 | 1.63 | 0.31 | 79 | 1015.2 |
| 20260904214530 | 76 | 257 | 0.0 | 1.0 | 0.00 | 1.63 | 0.31 | 78 | 1015.1 |
| 20260904213025 | 77 | 257 | 0.0 | 2.0 | 0.00 | 1.63 | 0.31 | 78 | 1014.9 |
| 20260904211528 | 77 | 194 | 0.0 | 1.0 | 0.00 | 1.63 | 0.31 | 78 | 1014.8 |
| 20260904210041 | 77 | 251 | 0.0 | 0.0 | 0.00 | 1.63 | 0.31 | 77 | 1014.3 |
| 20260904204534 | 77 | 178 | 0.0 | 2.0 | 0.00 | 1.63 | 0.31 | 77 | 1014.2 |
| 20260904203037 | 77 | 187 | 0.0 | 2.0 | 0.00 | 1.63 | 0.31 | 78 | 1014.4 |
| 20260904201527 | 77 | 154 | 1.0 | 2.0 | 0.00 | 1.63 | 0.31 | 78 | 1014.7 |
| 20260904200006 | 76 | 193 | 0.0 | 3.0 | 0.00 | 1.66 | 0.31 | 81 | 1015.1 |
| 20260904194507 | 75 | 223 | 0.0 | 2.0 | 0.00 | 1.84 | 0.31 | 82 | 1015.5 |
| 20260904193013 | 75 | 273 | 0.0 | 5.0 | 0.00 | 1.96 | 0.31 | 84 | 1015.8 |
| 20260904191503 | 74 | 297 | 3.0 | 5.0 | 0.01 | 2.04 | 0.31 | 83 | 1016.3 |
| 20260904190004 | 74 | 243 | 0.0 | 3.0 | 0.01 | 2.04 | 0.31 | 88 | 1016.6 |
| 20260904184508 | 73 | 156 | 0.0 | 2.0 | 0.01 | 2.04 | 0.31 | 89 | 1016.0 |
| 20260904183021 | 73 | 254 | 0.0 | 3.0 | 0.01 | 2.04 | 0.31 | 89 | 1016.1 |
| 20260904181527 | 72 | 262 | 1.0 | 3.0 | 0.00 | 2.03 | 0.30 | 89 | 1017.0 |
| 20260904180004 | 73 | 285 | 1.0 | 4.0 | 0.00 | 2.03 | 0.30 | 90 | 1017.6 |
| 20260904174506 | 72 | 288 | 2.0 | 4.0 | 0.02 | 2.03 | 0.30 | 91 | 1017.8 |
| 20260904173017 | 72 | 302 | 1.0 | 6.0 | 0.02 | 2.03 | 0.30 | 92 | 1017.8 |
| 20260904171513 | 72 | 287 | 2.0 | 4.0 | 0.02 | 2.03 | 0.30 | 92 | 1018.0 |
| 20260904170017 | 71 | 285 | 0.0 | 5.0 | 0.02 | 2.03 | 0.30 | 92 | 1017.9 |
| 20260904164504 | 72 | 293 | 2.0 | 5.0 | 0.00 | 2.01 | 0.28 | 92 | 1018.2 |
| 20260904163006 | 72 | 292 | 1.0 | 4.0 | 0.00 | 2.01 | 0.28 | 92 | 1018.1 |
| 20260904161512 | 72 | 265 | 2.0 | 6.0 | 0.00 | 2.01 | 0.28 | 93 | 1018.1 |
| 20260904160016 | 71 | 295 | 2.0 | 5.0 | 0.01 | 2.01 | 0.28 | 93 | 1018.3 |
| 20260904154526 | 71 | 293 | 0.0 | 2.0 | 0.03 | 2.01 | 0.28 | 94 | 1017.9 |
| 20260904153006 | 70 | 84 | 1.0 | 5.0 | 0.06 | 2.01 | 0.28 | 94 | 1017.3 |
| 20260904151507 | 69 | 90 | 2.0 | 4.0 | 0.07 | 2.01 | 0.28 | 94 | 1017.4 |
| 20260904150015 | 69 | 115 | 1.0 | 1.0 | 0.07 | 2.00 | 0.27 | 94 | 1017.9 |
| 20260904144518 | 69 | 233 | 0.0 | 1.0 | 0.19 | 1.98 | 0.25 | 94 | 1017.9 |
| 20260904143037 | 69 | 235 | 0.0 | 1.0 | 0.21 | 1.95 | 0.22 | 94 | 1018.2 |
| 20260904141528 | 69 | 235 | 0.0 | 0.0 | 0.20 | 1.94 | 0.21 | 94 | 1017.9 |
| 20260904140007 | 69 | 229 | 0.0 | 3.0 | 0.19 | 1.93 | 0.20 | 94 | 1018.1 |
| 20260904134523 | 69 | 268 | 0.0 | 4.0 | 0.05 | 1.79 | 0.06 | 93 | 1018.0 |
| 20260904133020 | 69 | 308 | 1.0 | 2.0 | 0.00 | 1.74 | 0.01 | 93 | 1017.7 |
| 20260904131529 | 69 | 151 | 0.0 | 1.0 | 0.00 | 1.74 | 0.01 | 94 | 1017.2 |
| 20260904130029 | 69 | 110 | 0.0 | 1.0 | 0.00 | 1.74 | 0.01 | 94 | 1017.4 |
| 20260904124510 | 69 | 102 | 0.0 | 2.0 | 0.00 | 1.74 | 0.01 | 94 | 1017.3 |
| 20260904123019 | 68 | 101 | 0.0 | 2.0 | 0.00 | 1.74 | 0.01 | 94 | 1017.2 |
| 20260904121523 | 68 | 88 | 0.0 | 2.0 | 0.00 | 1.74 | 0.01 | 94 | 1017.2 |
| 20260904120029 | 67 | 117 | 1.0 | 2.0 | 0.00 | 1.74 | 0.01 | 94 | 1017.3 |
| 20260904114529 | 66 | 127 | 0.0 | 1.0 | 0.00 | 1.74 | 0.01 | 94 | 1017.2 |
| 20260904113013 | 66 | 120 | 0.0 | 1.0 | 0.00 | 1.74 | 0.01 | 94 | 1017.2 |
| 20260904111521 | 66 | 122 | 0.0 | 1.0 | 0.00 | 1.74 | 0.01 | 94 | 1017.1 |
| 20260904110004 | 65 | 123 | 0.0 | 1.0 | 0.01 | 1.80 | 0.01 | 94 | 1016.7 |
| 20260904104504 | 65 | 123 | 0.0 | 1.0 | 0.01 | 1.83 | 0.01 | 94 | 1016.5 |
| 20260904103007 | 65 | 123 | 0.0 | 0.0 | 0.01 | 1.83 | 0.01 | 94 | 1016.5 |
| 20260904101504 | 65 | 123 | 0.0 | 1.0 | 0.01 | 1.89 | 0.01 | 94 | 1016.4 |
| 20260904100004 | 65 | 109 | 0.0 | 1.0 | 0.00 | 1.91 | 0.00 | 94 | 1016.5 |
| 20260904094508 | 65 | 126 | 0.0 | 1.0 | 0.00 | 1.91 | 0.00 | 94 | 1016.7 |
| 20260904093006 | 65 | 126 | 0.0 | 1.0 | 0.00 | 1.91 | 0.00 | 94 | 1017.1 |
| 20260904091523 | 65 | 124 | 0.0 | 0.0 | 0.00 | 1.91 | 0.00 | 94 | 1016.6 |
| 20260904090013 | 65 | 124 | 0.0 | 0.0 | 0.00 | 1.91 | 0.00 | 94 | 1016.7 |
| 20260904084504 | 65 | 124 | 0.0 | 0.0 | 0.00 | 1.91 | 0.00 | 94 | 1016.5 |
| 20260904083009 | 65 | 124 | 0.0 | 0.0 | 0.00 | 1.91 | 0.00 | 94 | 1016.4 |
| 20260904081507 | 65 | 125 | 0.0 | 0.0 | 0.00 | 1.91 | 0.00 | 94 | 1016.3 |
| 20260904080010 | 65 | 124 | 0.0 | 0.0 | 0.00 | 1.91 | 0.00 | 94 | 1016.7 |
| 20260904074510 | 65 | 126 | 0.0 | 0.0 | 0.00 | 1.91 | 0.00 | 94 | 1016.8 |
| 20260904073008 | 65 | 126 | 0.0 | 0.0 | 0.00 | 1.91 | 0.00 | 94 | 1016.7 |
| 20260904071507 | 66 | 126 | 0.0 | 0.0 | 0.00 | 1.91 | 0.00 | 94 | 1016.7 |
| 20260904070018 | 66 | 126 | 0.0 | 0.0 | 0.00 | 1.91 | 0.00 | 94 | 1016.5 |
| 20260904064511 | 66 | 125 | 0.0 | 1.0 | 0.00 | 1.91 | 0.00 | 94 | 1016.8 |
| 20260904063027 | 67 | 129 | 0.0 | 1.0 | 0.00 | 1.91 | 0.00 | 94 | 1016.9 |
| 20260904061509 | 66 | 147 | 0.0 | 0.0 | 0.00 | 1.91 | 0.00 | 94 | 1017.0 |
| 20260904060018 | 67 | 136 | 0.0 | 2.0 | 0.00 | 1.91 | 0.00 | 94 | 1016.9 |
| 20260904054513 | 67 | 345 | 0.0 | 0.0 | 0.00 | 1.91 | 0.00 | 94 | 1017.0 |
| 20260904053014 | 67 | 345 | 0.0 | 0.0 | 0.00 | 1.91 | 0.00 | 94 | 1016.8 |